Portada
METAR-TAF:

METAR-TAF

Aeroports :

Pekanbaru, Indonèsia

latitud: 00-28N, longitud: 101-27E, altitud: 31 m

Observació

L'informe es va fer fa 7 hores i 38 minuts, a les 17:30 UTC
Vent 6 kt del Sud/Sud-Oest
Temperatura 26°C
Humitat 89%
Pressió 1009 hPa
Visibilitat: 7000 m
Escasses núvols a una alçada de 1500 ft
Escasses núvols a una alçada de 1700 ft, Cumulonimbus.

METAR: WIBB 291730Z 20006KT 7000 FEW015 FEW017CB 26/24 Q1009

Hora: 08:08 (01:08 UTC)


TAF: manca

Observacions i pronòstics meteorològics de més de 4000 aeroports (METAR i TAF).

Les estacions disponibles són els punts grocs i vermells al mapa.

Posi el ratolí al punt desitjat per veure el nom de l'estació.

Feu clic per veure les observacions i els pronòstics meteorològics.

Per canviar el mapa: feu clic els botons verds amb una creu de color negre per apropar; al botó verd amb un guió per allunyar la imatge; o en les fletxes verdes per a mapes adjacents.


METAR-TAF: